| time (UTC) | temp C | wind direction | speed KPH | gust KPH | rain 1hr cm | rain 24hr cm | rain mn cm | humidity % | barometer mb |
| 20260505070053 | 15 | 21 | 6.4 | 29.0 | 0.00 | 0.00 | 0.00 | 44 | 1005.6 |
| 20260505064537 | 15 | 4 | 8.0 | 30.6 | 0.00 | 0.00 | 0.00 | 44 | 1005.1 |
| 20260505063032 | 15 | 8 | 11.3 | 22.5 | 0.00 | 0.00 | 0.00 | 43 | 1003.9 |
| 20260505061538 | 15 | 8 | 8.0 | 22.5 | 0.00 | 0.00 | 0.00 | 44 | 1003.7 |
| 20260505060025 | 16 | 9 | 11.3 | 25.7 | 0.00 | 0.00 | 0.00 | 43 | 1003.6 |
| 20260505054528 | 16 | 8 | 11.3 | 25.7 | 0.00 | 0.00 | 0.00 | 42 | 1003.4 |
| 20260505053023 | 17 | 19 | 11.3 | 30.6 | 0.00 | 0.00 | 0.00 | 41 | 1003.4 |
| 20260505051516 | 18 | 4 | 11.3 | 24.1 | 0.00 | 0.00 | 0.00 | 40 | 1003.0 |
| 20260505041511 | 21 | 31 | 6.4 | 16.1 | 0.00 | 0.00 | 0.00 | 39 | 1001.3 |
| 20260505040019 | 21 | 30 | 3.2 | 11.3 | 0.00 | 0.00 | 0.00 | 39 | 1001.2 |
| 20260505034509 | 21 | 8 | 4.8 | 16.1 | 0.00 | 0.00 | 0.00 | 39 | 1001.1 |
| 20260505033013 | 22 | 9 | 8.0 | 19.3 | 0.00 | 0.00 | 0.00 | 42 | 1000.7 |
| 20260505031508 | 22 | 29 | 3.2 | 9.7 | 0.00 | 0.00 | 0.00 | 55 | 1000.3 |
| 20260505030014 | 21 | 28 | 6.4 | 11.3 | 0.00 | 0.00 | 0.00 | 59 | 999.9 |
| 20260505024507 | 20 | 24 | 3.2 | 14.5 | 0.00 | 0.00 | 0.00 | 66 | 999.3 |
| 20260505023007 | 21 | 21 | 0.0 | 0.0 | 0.00 | 0.00 | 0.00 | 66 | 998.7 |
| 20260505021507 | 21 | 21 | 0.0 | 0.0 | 0.00 | 0.00 | 0.00 | 62 | 998.6 |
| 20260505020008 | 22 | 21 | 0.0 | 0.0 | 0.00 | 0.00 | 0.00 | 60 | 998.3 |
| 20260505014505 | 22 | 20 | 0.0 | 0.0 | 0.00 | 0.00 | 0.00 | 59 | 998.1 |
| 20260505013005 | 23 | 20 | 0.0 | 0.0 | 0.00 | 0.00 | 0.00 | 56 | 997.9 |
| 20260505011505 | 23 | 24 | 0.0 | 3.2 | 0.00 | 0.00 | 0.00 | 55 | 997.8 |
| 20260505010004 | 25 | 30 | 0.0 | 4.8 | 0.00 | 0.00 | 0.00 | 52 | 997.7 |
| 20260505004506 | 25 | 359 | 0.0 | 6.4 | 0.00 | 0.00 | 0.00 | 50 | 997.6 |
| 20260505003003 | 26 | 252 | 0.0 | 6.4 | 0.00 | 0.00 | 0.00 | 48 | 997.4 |
| 20260505001503 | 26 | 228 | 1.6 | 8.0 | 0.00 | 0.00 | 0.00 | 48 | 997.4 |
| 20260505000002 | 26 | 258 | 1.6 | 6.4 | 0.00 | 0.00 | 0.00 | 48 | 997.5 |
| 20260504234502 | 27 | 259 | 3.2 | 8.0 | 0.00 | 0.00 | 0.00 | 47 | 997.4 |
| 20260504233002 | 27 | 212 | 1.6 | 6.4 | 0.00 | 0.00 | 0.00 | 46 | 997.4 |
| 20260504231600 | 27 | 215 | 1.6 | 11.3 | 0.00 | 0.00 | 0.00 | 45 | 997.5 |
| 20260504230103 | 27 | 229 | 3.2 | 11.3 | 0.00 | 0.00 | 0.00 | 44 | 997.4 |
| 20260504224604 | 28 | 136 | 3.2 | 16.1 | 0.00 | 0.00 | 0.00 | 43 | 997.4 |
| 20260504223101 | 28 | 243 | 3.2 | 14.5 | 0.00 | 0.00 | 0.00 | 41 | 997.3 |
| 20260504221558 | 28 | 267 | 4.8 | 19.3 | 0.00 | 0.00 | 0.00 | 40 | 997.3 |
| 20260504220104 | 28 | 245 | 8.0 | 16.1 | 0.00 | 0.00 | 0.00 | 41 | 997.3 |
| 20260504214558 | 28 | 172 | 0.0 | 17.7 | 0.00 | 0.00 | 0.00 | 42 | 997.6 |
| 20260504213109 | 28 | 231 | 6.4 | 12.9 | 0.00 | 0.00 | 0.00 | 40 | 997.6 |
| 20260504211555 | 28 | 231 | 3.2 | 12.9 | 0.00 | 0.00 | 0.00 | 40 | 997.7 |
| 20260504210053 | 28 | 158 | 4.8 | 19.3 | 0.00 | 0.00 | 0.00 | 39 | 997.8 |
| 20260504204600 | 28 | 201 | 8.0 | 20.9 | 0.00 | 0.00 | 0.00 | 40 | 997.9 |
| 20260504203050 | 28 | 220 | 8.0 | 17.7 | 0.00 | 0.00 | 0.00 | 40 | 998.0 |
| 20260504201548 | 28 | 219 | 4.8 | 14.5 | 0.00 | 0.00 | 0.00 | 41 | 998.2 |
| 20260504200046 | 28 | 217 | 8.0 | 17.7 | 0.00 | 0.00 | 0.00 | 41 | 998.3 |
| 20260504194545 | 27 | 239 | 9.7 | 20.9 | 0.00 | 0.00 | 0.00 | 41 | 998.4 |
| 20260504193054 | 27 | 237 | 4.8 | 14.5 | 0.00 | 0.00 | 0.00 | 42 | 998.4 |
| 20260504191540 | 27 | 210 | 6.4 | 16.1 | 0.00 | 0.00 | 0.00 | 45 | 998.4 |
| 20260504190041 | 26 | 227 | 6.4 | 12.9 | 0.00 | 0.00 | 0.00 | 43 | 998.5 |
| 20260504184536 | 27 | 206 | 4.8 | 11.3 | 0.00 | 0.00 | 0.00 | 48 | 998.5 |
| 20260504183041 | 26 | 225 | 4.8 | 19.3 | 0.00 | 0.00 | 0.00 | 45 | 998.7 |
| 20260504181536 | 26 | 253 | 3.2 | 19.3 | 0.00 | 0.00 | 0.00 | 46 | 998.7 |
| 20260504180028 | 26 | 263 | 3.2 | 14.5 | 0.00 | 0.00 | 0.00 | 48 | 998.9 |
| 20260504174526 | 25 | 229 | 4.8 | 14.5 | 0.00 | 0.00 | 0.00 | 48 | 999.0 |
| 20260504173023 | 25 | 229 | 9.7 | 24.1 | 0.00 | 0.00 | 0.00 | 49 | 999.1 |
| 20260504171521 | 25 | 205 | 6.4 | 16.1 | 0.00 | 0.00 | 0.00 | 49 | 999.2 |
| 20260504081510 | 18 | 21 | 0.0 | 0.0 | 0.00 | 0.00 | 0.00 | 56 | 1001.8 |